Time,TemperatureF,DewpointF,PressureIn,WindDirection,WindDirectionDegrees,WindSpeedMPH,WindSpeedGustMPH,Humidity,HourlyPrecipIn,Conditions,Clouds,dailyrainin,SoftwareType,DateUTC
2013-05-24 00:00:00,47.6,43.3,29.95,NE,37,2.0,2.0,85,0.00,,,0.05,Wunderground v.1.15,2013-05-24 04:00:00,
2013-05-24 00:05:00,47.4,43.1,29.95,NE,55,2.0,5.0,85,0.00,,,0.00,Wunderground v.1.15,2013-05-24 04:05:00,
2013-05-24 00:09:00,47.4,43.4,29.95,WNW,295,2.0,2.0,86,0.00,,,0.00,Wunderground v.1.15,2013-05-24 04:09:00,
2013-05-24 00:15:00,47.4,43.4,29.95,NE,36,1.0,2.0,86,0.00,,,0.00,Wunderground v.1.15,2013-05-24 04:15:00,
2013-05-24 00:19:00,47.4,43.4,29.95,NE,41,1.0,3.0,86,0.00,,,0.00,Wunderground v.1.15,2013-05-24 04:19:00,
2013-05-24 00:24:00,47.3,43.3,29.95,ENE,61,2.0,3.0,86,0.00,,,0.00,Wunderground v.1.15,2013-05-24 04:24:00,
2013-05-24 00:30:00,46.8,42.5,29.97,NE,36,3.0,3.0,85,0.00,,,0.00,Wunderground v.1.15,2013-05-24 04:30:00,
2013-05-24 00:39:00,46.5,42.2,29.97,NNE,23,3.0,3.0,85,0.00,,,0.00,Wunderground v.1.15,2013-05-24 04:39:00,
2013-05-24 00:45:00,46.4,42.1,29.97,WSW,253,2.0,3.0,85,0.00,,,0.00,Wunderground v.1.15,2013-05-24 04:45:00,
2013-05-24 00:55:00,46.1,41.5,29.97,NNE,26,3.0,3.0,84,0.00,,,0.00,Wunderground v.1.15,2013-05-24 04:55:00,
2013-05-24 01:00:00,46.0,41.4,29.98,NNE,22,3.0,3.0,84,0.00,,,0.00,Wunderground v.1.15,2013-05-24 05:00:00,
2013-05-24 01:10:00,45.8,41.2,29.98,NE,40,3.0,3.0,84,0.00,,,0.00,Wunderground v.1.15,2013-05-24 05:10:00,
2013-05-24 01:15:00,45.8,41.2,29.99,WNW,290,2.0,4.0,84,0.00,,,0.00,Wunderground v.1.15,2013-05-24 05:15:00,
2013-05-24 01:24:00,45.8,41.5,29.99,NNE,24,2.0,2.0,85,0.00,,,0.00,Wunderground v.1.15,2013-05-24 05:24:00,
2013-05-24 01:30:00,45.5,41.6,29.99,WNW,298,2.0,2.0,86,0.00,,,0.00,Wunderground v.1.15,2013-05-24 05:30:00,
2013-05-24 01:39:00,45.1,41.2,29.99,NNW,339,2.0,2.0,86,0.00,,,0.00,Wunderground v.1.15,2013-05-24 05:39:00,
2013-05-24 01:45:00,44.9,41.3,30.00,NE,50,3.0,3.0,87,0.00,,,0.00,Wunderground v.1.15,2013-05-24 05:45:00,
2013-05-24 01:55:00,44.6,41.3,30.00,North,360,2.0,3.0,88,0.00,,,0.00,Wunderground v.1.15,2013-05-24 05:55:00,
2013-05-24 02:00:00,44.6,41.3,30.00,NE,46,2.0,2.0,88,0.00,,,0.00,Wunderground v.1.15,2013-05-24 06:00:00,
2013-05-24 02:10:00,44.5,41.2,30.00,NNE,25,3.0,3.0,88,0.00,,,0.00,Wunderground v.1.15,2013-05-24 06:10:00,
2013-05-24 02:15:00,44.3,40.7,29.99,ENE,65,3.0,3.0,87,0.00,,,0.00,Wunderground v.1.15,2013-05-24 06:15:00,
2013-05-24 02:24:00,44.5,40.6,29.99,NNE,28,2.0,9.0,86,0.00,,,0.00,Wunderground v.1.15,2013-05-24 06:24:00,
2013-05-24 02:30:00,44.5,40.0,30.00,NNE,16,3.0,3.0,84,0.00,,,0.00,Wunderground v.1.15,2013-05-24 06:30:00,
2013-05-24 02:39:00,44.6,39.8,30.00,NE,44,2.0,2.0,83,0.00,,,0.00,Wunderground v.1.15,2013-05-24 06:39:00,
2013-05-24 02:45:00,44.6,39.8,30.01,NNE,21,2.0,2.0,83,0.00,,,0.00,Wunderground v.1.15,2013-05-24 06:45:00,
2013-05-24 02:54:00,44.8,39.6,30.01,NE,46,2.0,5.0,82,0.00,,,0.00,Wunderground v.1.15,2013-05-24 06:54:00,
2013-05-24 03:00:00,44.8,39.3,30.01,NE,49,2.0,3.0,81,0.00,,,0.00,Wunderground v.1.15,2013-05-24 07:00:00,
2013-05-24 03:09:00,44.8,39.0,30.01,North,355,3.0,3.0,80,0.00,,,0.00,Wunderground v.1.15,2013-05-24 07:09:00,
2013-05-24 03:15:00,44.9,39.1,30.01,NE,36,2.0,3.0,80,0.00,,,0.00,Wunderground v.1.15,2013-05-24 07:15:00,
2013-05-24 03:24:00,44.9,39.4,30.01,NNE,32,2.0,2.0,81,0.00,,,0.00,Wunderground v.1.15,2013-05-24 07:24:00,
2013-05-24 03:30:00,44.9,39.4,30.02,North,355,1.0,2.0,81,0.00,,,0.00,Wunderground v.1.15,2013-05-24 07:30:00,
2013-05-24 03:40:00,44.9,39.4,30.02,NE,46,1.0,1.0,81,0.00,,,0.00,Wunderground v.1.15,2013-05-24 07:40:00,
2013-05-24 03:45:00,44.9,39.4,30.02,North,355,1.0,3.0,81,0.00,,,0.00,Wunderground v.1.15,2013-05-24 07:45:00,
2013-05-24 03:54:00,44.6,38.5,30.02,NE,47,2.0,4.0,79,0.00,,,0.00,Wunderground v.1.15,2013-05-24 07:54:00,
2013-05-24 04:00:00,44.5,38.4,30.03,NNE,17,2.0,2.0,79,0.00,,,0.00,Wunderground v.1.15,2013-05-24 08:00:00,
2013-05-24 04:05:00,44.5,38.1,30.03,North,9,2.0,4.0,78,0.00,,,0.00,Wunderground v.1.15,2013-05-24 08:05:00,
2013-05-24 04:15:00,44.3,37.9,30.03,NE,38,2.0,2.0,78,0.00,,,0.00,Wunderground v.1.15,2013-05-24 08:15:00,
2013-05-24 04:25:00,44.2,37.8,30.03,North,5,2.0,4.0,78,0.00,,,0.00,Wunderground v.1.15,2013-05-24 08:25:00,
2013-05-24 04:30:00,44.2,38.1,30.04,NE,53,1.0,2.0,79,0.00,,,0.00,Wunderground v.1.15,2013-05-24 08:30:00,
2013-05-24 04:39:00,44.1,38.0,30.04,ENE,59,2.0,2.0,79,0.00,,,0.00,Wunderground v.1.15,2013-05-24 08:39:00,
2013-05-24 04:45:00,43.9,37.8,30.04,NNE,27,2.0,2.0,79,0.00,,,0.00,Wunderground v.1.15,2013-05-24 08:45:00,
2013-05-24 04:54:00,43.8,38.0,30.04,NNE,32,1.0,1.0,80,0.00,,,0.00,Wunderground v.1.15,2013-05-24 08:54:00,
2013-05-24 05:00:00,43.8,38.0,30.05,NNE,28,1.0,1.0,80,0.00,,,0.00,Wunderground v.1.15,2013-05-24 09:00:00,
2013-05-24 05:09:00,43.5,37.7,30.05,ENE,68,1.0,3.0,80,0.00,,,0.00,Wunderground v.1.15,2013-05-24 09:09:00,
2013-05-24 05:15:00,43.3,37.5,30.06,NE,53,2.0,3.0,80,0.00,,,0.00,Wunderground v.1.15,2013-05-24 09:15:00,
2013-05-24 05:24:00,43.1,37.7,30.06,NNE,21,1.0,1.0,81,0.00,,,0.00,Wunderground v.1.15,2013-05-24 09:24:00,
2013-05-24 05:30:00,42.9,37.8,30.06,NE,34,1.0,1.0,82,0.00,,,0.00,Wunderground v.1.15,2013-05-24 09:30:00,
2013-05-24 05:39:00,42.6,37.8,30.06,NE,45,1.0,1.0,83,0.00,,,0.00,Wunderground v.1.15,2013-05-24 09:39:00,
2013-05-24 05:45:00,42.6,38.1,30.07,ENE,57,1.0,1.0,84,0.00,,,0.00,Wunderground v.1.15,2013-05-24 09:45:00,
2013-05-24 05:55:00,42.5,38.3,30.07,NE,51,1.0,2.0,85,0.00,,,0.00,Wunderground v.1.15,2013-05-24 09:55:00,
2013-05-24 06:00:00,42.3,37.8,30.07,NE,55,1.0,1.0,84,0.00,,,0.00,Wunderground v.1.15,2013-05-24 10:00:00,
2013-05-24 06:09:00,42.3,38.1,30.07,NNE,30,1.0,1.0,85,0.00,,,0.00,Wunderground v.1.15,2013-05-24 10:09:00,
2013-05-24 06:15:00,42.2,38.0,30.08,ENE,59,1.0,1.0,85,0.00,,,0.00,Wunderground v.1.15,2013-05-24 10:15:00,
2013-05-24 06:24:00,41.9,37.4,30.08,NNW,333,1.0,4.0,84,0.00,,,0.00,Wunderground v.1.15,2013-05-24 10:24:00,
2013-05-24 06:30:00,41.9,37.4,30.09,ENE,59,1.0,1.0,84,0.00,,,0.00,Wunderground v.1.15,2013-05-24 10:30:00,
2013-05-24 06:40:00,41.8,37.3,30.09,NE,43,0.0,0.0,84,0.00,,,0.00,Wunderground v.1.15,2013-05-24 10:40:00,
2013-05-24 06:45:00,41.8,37.0,30.09,NNE,16,1.0,1.0,83,0.00,,,0.00,Wunderground v.1.15,2013-05-24 10:45:00,
2013-05-24 06:55:00,41.8,36.1,30.09,NE,36,1.0,3.0,80,0.00,,,0.00,Wunderground v.1.15,2013-05-24 10:55:00,
2013-05-24 07:00:00,41.9,36.2,30.10,NE,42,1.0,2.0,80,0.00,,,0.00,Wunderground v.1.15,2013-05-24 11:00:00,
2013-05-24 07:10:00,42.1,35.7,30.10,NE,49,2.0,2.0,78,0.00,,,0.00,Wunderground v.1.15,2013-05-24 11:10:00,
2013-05-24 07:15:00,42.2,35.5,30.10,NE,40,2.0,2.0,77,0.00,,,0.00,Wunderground v.1.15,2013-05-24 11:15:00,
2013-05-24 07:24:00,42.5,35.5,30.10,North,5,2.0,3.0,76,0.00,,,0.00,Wunderground v.1.15,2013-05-24 11:24:00,
2013-05-24 07:30:00,42.6,35.2,30.11,NNW,333,1.0,1.0,75,0.00,,,0.00,Wunderground v.1.15,2013-05-24 11:30:00,
2013-05-24 07:39:00,42.8,35.4,30.11,NE,55,1.0,1.0,75,0.00,,,0.00,Wunderground v.1.15,2013-05-24 11:39:00,
2013-05-24 07:45:00,42.9,35.5,30.11,NE,40,1.0,5.0,75,0.00,,,0.00,Wunderground v.1.15,2013-05-24 11:45:00,
2013-05-24 07:54:00,43.2,35.1,30.11,NE,51,2.0,2.0,73,0.00,,,0.00,Wunderground v.1.15,2013-05-24 11:54:00,
2013-05-24 08:00:00,43.3,34.9,30.12,North,9,2.0,2.0,72,0.00,,,0.00,Wunderground v.1.15,2013-05-24 12:00:00,
2013-05-24 08:09:00,43.8,34.6,30.12,North,5,3.0,4.0,70,0.00,,,0.00,Wunderground v.1.15,2013-05-24 12:09:00,
2013-05-24 08:15:00,44.1,34.9,30.13,NNE,30,3.0,4.0,70,0.00,,,0.00,Wunderground v.1.15,2013-05-24 12:15:00,
2013-05-24 08:24:00,44.3,34.8,30.13,NE,42,3.0,3.0,69,0.00,,,0.00,Wunderground v.1.15,2013-05-24 12:24:00,
2013-05-24 08:30:00,44.6,35.1,30.14,NE,54,2.0,3.0,69,0.00,,,0.00,Wunderground v.1.15,2013-05-24 12:30:00,
2013-05-24 08:40:00,44.6,34.3,30.14,ENE,58,3.0,5.0,67,0.00,,,0.00,Wunderground v.1.15,2013-05-24 12:40:00,
2013-05-24 08:45:00,44.6,34.7,30.15,North,9,3.0,5.0,68,0.00,,,0.00,Wunderground v.1.15,2013-05-24 12:45:00,
2013-05-24 08:54:00,44.5,34.6,30.15,North,350,2.0,3.0,68,0.00,,,0.00,Wunderground v.1.15,2013-05-24 12:54:00,
2013-05-24 09:00:00,44.5,34.2,30.15,NNE,32,3.0,4.0,67,0.00,,,0.00,Wunderground v.1.15,2013-05-24 13:00:00,
2013-05-24 09:09:00,44.6,35.1,30.15,NE,42,2.0,6.0,69,0.00,,,0.00,Wunderground v.1.15,2013-05-24 13:09:00,
2013-05-24 09:15:00,44.6,34.3,30.16,ENE,63,2.0,6.0,67,0.00,,,0.00,Wunderground v.1.15,2013-05-24 13:15:00,
2013-05-24 09:25:00,45.2,34.9,30.16,NNE,20,2.0,3.0,67,0.00,,,0.00,Wunderground v.1.15,2013-05-24 13:25:00,
2013-05-24 09:30:00,45.7,35.4,30.16,NE,36,1.0,4.0,67,0.00,,,0.00,Wunderground v.1.15,2013-05-24 13:30:00,
2013-05-24 09:39:00,45.8,34.7,30.16,NE,49,2.0,2.0,65,0.00,,,0.00,Wunderground v.1.15,2013-05-24 13:39:00,
2013-05-24 09:45:00,45.8,34.7,30.17,NNE,29,3.0,4.0,65,0.00,,,0.00,Wunderground v.1.15,2013-05-24 13:45:00,
2013-05-24 09:54:00,46.0,35.7,30.17,NE,40,2.0,3.0,67,0.00,,,0.00,Wunderground v.1.15,2013-05-24 13:54:00,
2013-05-24 10:00:00,45.8,35.1,30.18,NNE,28,2.0,3.0,66,0.00,,,0.00,Wunderground v.1.15,2013-05-24 14:00:00,
2013-05-24 10:10:00,45.7,35.7,30.18,NNE,19,2.0,2.0,68,0.00,,,0.00,Wunderground v.1.15,2013-05-24 14:10:00,
2013-05-24 10:15:00,45.7,35.7,30.19,NE,38,1.0,3.0,68,0.00,,,0.00,Wunderground v.1.15,2013-05-24 14:15:00,
2013-05-24 10:25:00,45.8,36.2,30.19,North,355,2.0,2.0,69,0.00,,,0.00,Wunderground v.1.15,2013-05-24 14:25:00,
2013-05-24 10:30:00,45.8,35.5,30.19,East,84,1.0,7.0,67,0.00,,,0.00,Wunderground v.1.15,2013-05-24 14:30:00,
2013-05-24 10:39:00,46.2,35.5,30.19,NE,47,2.0,2.0,66,0.00,,,0.00,Wunderground v.1.15,2013-05-24 14:39:00,
2013-05-24 10:45:00,46.2,35.5,30.19,NNE,33,2.0,2.0,66,0.00,,,0.00,Wunderground v.1.15,2013-05-24 14:45:00,
2013-05-24 10:55:00,47.0,37.4,30.19,ENE,74,1.0,4.0,69,0.00,,,0.00,Wunderground v.1.15,2013-05-24 14:55:00,
2013-05-24 11:00:00,47.3,35.7,30.20,NE,41,2.0,4.0,64,0.00,,,0.00,Wunderground v.1.15,2013-05-24 15:00:00,
2013-05-24 11:10:00,47.7,36.9,30.20,East,97,1.0,1.0,66,0.00,,,0.00,Wunderground v.1.15,2013-05-24 15:10:00,
2013-05-24 11:15:00,48.0,36.4,30.20,NE,40,2.0,2.0,64,0.00,,,0.00,Wunderground v.1.15,2013-05-24 15:15:00,
2013-05-24 11:24:00,48.5,34.8,30.20,East,83,2.0,5.0,59,0.00,,,0.00,Wunderground v.1.15,2013-05-24 15:24:00,
2013-05-24 11:30:00,48.9,35.2,30.20,NE,38,2.0,2.0,59,0.00,,,0.00,Wunderground v.1.15,2013-05-24 15:30:00,
2013-05-24 11:40:00,49.4,36.1,30.20,ENE,59,2.0,3.0,60,0.00,,,0.00,Wunderground v.1.15,2013-05-24 15:40:00,
2013-05-24 11:45:00,48.8,34.7,30.21,NNE,14,3.0,5.0,58,0.00,,,0.00,Wunderground v.1.15,2013-05-24 15:45:00,
2013-05-24 11:54:00,49.6,37.5,30.21,West,263,2.0,3.0,63,0.00,,,0.00,Wunderground v.1.15,2013-05-24 15:54:00,
2013-05-24 12:00:00,50.4,36.6,30.21,ENE,74,2.0,4.0,59,0.00,,,0.00,Wunderground v.1.15,2013-05-24 16:00:00,
2013-05-24 12:09:00,49.5,35.3,30.21,SE,142,3.0,3.0,58,0.00,,,0.00,Wunderground v.1.15,2013-05-24 16:09:00,
2013-05-24 12:15:00,49.9,36.1,30.22,ENE,58,3.0,3.0,59,0.00,,,0.00,Wunderground v.1.15,2013-05-24 16:15:00,
2013-05-24 12:25:00,51.3,35.7,30.22,NE,42,2.0,2.0,55,0.00,,,0.00,Wunderground v.1.15,2013-05-24 16:25:00,
2013-05-24 12:30:00,51.1,34.5,30.21,North,351,3.0,5.0,53,0.00,,,0.00,Wunderground v.1.15,2013-05-24 16:30:00,
2013-05-24 12:39:00,51.0,37.2,30.21,NNE,32,2.0,2.0,59,0.00,,,0.00,Wunderground v.1.15,2013-05-24 16:39:00,
2013-05-24 12:45:00,51.4,36.7,30.21,NE,46,3.0,3.0,57,0.00,,,0.00,Wunderground v.1.15,2013-05-24 16:45:00,
2013-05-24 12:55:00,52.2,34.6,30.21,NE,36,3.0,3.0,51,0.00,,,0.00,Wunderground v.1.15,2013-05-24 16:55:00,
2013-05-24 13:00:00,52.0,34.9,30.22,NE,55,3.0,3.0,52,0.00,,,0.00,Wunderground v.1.15,2013-05-24 17:00:00,
2013-05-24 13:09:00,52.2,35.1,30.22,NNE,12,2.0,2.0,52,0.00,,,0.00,Wunderground v.1.15,2013-05-24 17:09:00,
2013-05-24 13:15:00,52.2,36.5,30.22,North,5,2.0,8.0,55,0.00,,,0.00,Wunderground v.1.15,2013-05-24 17:15:00,
2013-05-24 13:24:00,52.2,34.6,30.22,NE,36,2.0,3.0,51,0.00,,,0.00,Wunderground v.1.15,2013-05-24 17:24:00,
2013-05-24 13:30:00,51.9,36.2,30.22,East,81,2.0,7.0,55,0.00,,,0.00,Wunderground v.1.15,2013-05-24 17:30:00,
2013-05-24 13:39:00,51.3,34.7,30.22,NE,44,3.0,5.0,53,0.00,,,0.00,Wunderground v.1.15,2013-05-24 17:39:00,
2013-05-24 13:45:00,51.3,34.7,30.22,NE,52,3.0,5.0,53,0.00,,,0.00,Wunderground v.1.15,2013-05-24 17:45:00,
2013-05-24 13:55:00,52.5,34.4,30.22,North,355,2.0,6.0,50,0.00,,,0.00,Wunderground v.1.15,2013-05-24 17:55:00,
2013-05-24 14:00:00,52.2,36.5,30.23,NE,42,3.0,6.0,55,0.00,,,0.00,Wunderground v.1.15,2013-05-24 18:00:00,
2013-05-24 14:09:00,52.8,36.1,30.23,NE,41,2.0,2.0,53,0.00,,,0.00,Wunderground v.1.15,2013-05-24 18:09:00,
2013-05-24 14:15:00,53.5,38.2,30.23,NNE,32,2.0,3.0,56,0.00,,,0.00,Wunderground v.1.15,2013-05-24 18:15:00,
2013-05-24 14:24:00,53.5,35.3,30.23,South,190,3.0,4.0,50,0.00,,,0.00,Wunderground v.1.15,2013-05-24 18:24:00,
2013-05-24 14:30:00,53.1,34.9,30.22,ENE,78,3.0,3.0,50,0.00,,,0.00,Wunderground v.1.15,2013-05-24 18:30:00,
2013-05-24 14:39:00,53.5,34.3,30.22,NE,44,2.0,3.0,48,0.00,,,0.00,Wunderground v.1.15,2013-05-24 18:39:00,
2013-05-24 14:45:00,53.5,34.8,30.22,East,82,3.0,5.0,49,0.00,,,0.00,Wunderground v.1.15,2013-05-24 18:45:00,
2013-05-24 14:54:00,53.2,34.5,30.22,North,10,2.0,3.0,49,0.00,,,0.00,Wunderground v.1.15,2013-05-24 18:54:00,
2013-05-24 15:00:00,53.6,34.9,30.23,SE,130,3.0,3.0,49,0.00,,,0.00,Wunderground v.1.15,2013-05-24 19:00:00,
2013-05-24 15:09:00,53.3,36.1,30.23,SE,146,2.0,3.0,52,0.00,,,0.00,Wunderground v.1.15,2013-05-24 19:09:00,
2013-05-24 15:15:00,53.9,36.7,30.23,NW,321,2.0,3.0,52,0.00,,,0.00,Wunderground v.1.15,2013-05-24 19:15:00,
2013-05-24 15:24:00,53.9,35.7,30.23,NNE,29,3.0,4.0,50,0.00,,,0.00,Wunderground v.1.15,2013-05-24 19:24:00,
2013-05-24 15:34:00,54.7,35.4,30.23,NE,49,2.0,2.0,48,0.00,,,0.00,Wunderground v.1.15,2013-05-24 19:34:00,
2013-05-24 15:39:00,54.7,36.9,30.23,NW,316,1.0,2.0,51,0.00,,,0.00,Wunderground v.1.15,2013-05-24 19:39:00,
2013-05-24 15:45:00,54.5,36.7,30.23,NE,43,2.0,6.0,51,0.00,,,0.00,Wunderground v.1.15,2013-05-24 19:45:00,
2013-05-24 15:54:00,55.3,36.5,30.23,NNW,340,2.0,2.0,49,0.00,,,0.00,Wunderground v.1.15,2013-05-24 19:54:00,
2013-05-24 16:00:00,55.0,34.0,30.23,ENE,61,2.0,2.0,45,0.00,,,0.00,Wunderground v.1.15,2013-05-24 20:00:00,
2013-05-24 16:10:00,54.5,35.7,30.23,NE,46,2.0,2.0,49,0.00,,,0.00,Wunderground v.1.15,2013-05-24 20:10:00,
2013-05-24 16:15:00,54.7,34.8,30.23,NNE,24,2.0,5.0,47,0.00,,,0.00,Wunderground v.1.15,2013-05-24 20:15:00,
2013-05-24 16:24:00,54.7,34.8,30.23,NNE,13,3.0,4.0,47,0.00,,,0.00,Wunderground v.1.15,2013-05-24 20:24:00,
2013-05-24 16:30:00,54.5,36.7,30.23,NE,44,3.0,3.0,51,0.00,,,0.00,Wunderground v.1.15,2013-05-24 20:30:00,
2013-05-24 16:40:00,55.0,34.0,30.23,NNE,17,2.0,2.0,45,0.00,,,0.00,Wunderground v.1.15,2013-05-24 20:40:00,
2013-05-24 16:45:00,55.1,35.2,30.23,West,271,3.0,3.0,47,0.00,,,0.00,Wunderground v.1.15,2013-05-24 20:45:00,
2013-05-24 16:54:00,55.7,34.7,30.23,North,5,2.0,2.0,45,0.00,,,0.00,Wunderground v.1.15,2013-05-24 20:54:00,
2013-05-24 17:00:00,55.9,35.4,30.23,NNE,28,2.0,2.0,46,0.00,,,0.00,Wunderground v.1.15,2013-05-24 21:00:00,
2013-05-24 17:09:00,55.3,34.9,30.23,ESE,105,2.0,3.0,46,0.00,,,0.00,Wunderground v.1.15,2013-05-24 21:09:00,
2013-05-24 17:15:00,54.7,33.8,30.23,ENE,62,4.0,4.0,45,0.00,,,0.00,Wunderground v.1.15,2013-05-24 21:15:00,
2013-05-24 17:25:00,54.8,34.4,30.23,NE,46,2.0,8.0,46,0.00,,,0.00,Wunderground v.1.15,2013-05-24 21:25:00,
2013-05-24 17:30:00,55.1,35.2,30.24,NNW,336,2.0,4.0,47,0.00,,,0.00,Wunderground v.1.15,2013-05-24 21:30:00,
2013-05-24 17:40:00,55.1,35.2,30.24,NE,36,2.0,2.0,47,0.00,,,0.00,Wunderground v.1.15,2013-05-24 21:40:00,
2013-05-24 17:45:00,54.8,34.4,30.24,NE,40,2.0,2.0,46,0.00,,,0.00,Wunderground v.1.15,2013-05-24 21:45:00,
2013-05-24 17:54:00,54.7,33.2,30.24,NNE,29,3.0,3.0,44,0.00,,,0.00,Wunderground v.1.15,2013-05-24 21:54:00,
2013-05-24 18:00:00,54.7,35.9,30.24,NNW,342,3.0,3.0,49,0.00,,,0.00,Wunderground v.1.15,2013-05-24 22:00:00,
2013-05-24 18:09:00,55.4,33.8,30.24,North,5,1.0,5.0,44,0.00,,,0.00,Wunderground v.1.15,2013-05-24 22:09:00,
2013-05-24 18:15:00,55.1,34.7,30.24,NNE,30,2.0,5.0,46,0.00,,,0.00,Wunderground v.1.15,2013-05-24 22:15:00,
2013-05-24 18:25:00,54.7,33.8,30.24,NNE,29,2.0,2.0,45,0.00,,,0.00,Wunderground v.1.15,2013-05-24 22:25:00,
2013-05-24 18:30:00,54.4,34.0,30.23,North,355,2.0,2.0,46,0.00,,,0.00,Wunderground v.1.15,2013-05-24 22:30:00,
2013-05-24 18:39:00,54.1,34.8,30.23,NE,42,2.0,3.0,48,0.00,,,0.00,Wunderground v.1.15,2013-05-24 22:39:00,
2013-05-24 18:45:00,53.8,35.1,30.23,NNE,19,1.0,3.0,49,0.00,,,0.00,Wunderground v.1.15,2013-05-24 22:45:00,
2013-05-24 18:54:00,53.3,35.6,30.23,NE,47,2.0,2.0,51,0.00,,,0.00,Wunderground v.1.15,2013-05-24 22:54:00,
2013-05-24 19:00:00,53.2,35.0,30.22,NNE,27,1.0,3.0,50,0.00,,,0.00,Wunderground v.1.15,2013-05-24 23:00:00,
2013-05-24 19:09:00,52.9,35.2,30.22,NE,34,2.0,2.0,51,0.00,,,0.00,Wunderground v.1.15,2013-05-24 23:09:00,
2013-05-24 19:15:00,52.8,35.2,30.22,NE,37,1.0,3.0,51,0.00,,,0.00,Wunderground v.1.15,2013-05-24 23:15:00,
2013-05-24 19:24:00,52.6,35.9,30.22,NNE,21,1.0,2.0,53,0.00,,,0.00,Wunderground v.1.15,2013-05-24 23:24:00,
2013-05-24 19:30:00,52.5,35.4,30.22,North,355,1.0,1.0,52,0.00,,,0.00,Wunderground v.1.15,2013-05-24 23:30:00,
2013-05-24 19:39:00,52.2,35.6,30.22,NE,50,1.0,2.0,53,0.00,,,0.00,Wunderground v.1.15,2013-05-24 23:39:00,
2013-05-24 19:45:00,52.0,35.4,30.22,NE,46,0.0,2.0,53,0.00,,,0.00,Wunderground v.1.15,2013-05-24 23:45:00,
2013-05-24 19:55:00,51.7,35.6,30.22,NNW,332,1.0,1.0,54,0.00,,,0.00,Wunderground v.1.15,2013-05-24 23:55:00,
2013-05-24 20:00:00,51.6,35.9,30.23,NNW,332,0.0,0.0,55,0.00,,,0.00,Wunderground v.1.15,2013-05-25 00:00:00,
2013-05-24 20:10:00,51.1,36.4,30.23,NNW,332,0.0,0.0,57,0.00,,,0.00,Wunderground v.1.15,2013-05-25 00:10:00,
2013-05-24 20:15:00,51.0,36.3,30.23,NNE,12,0.0,0.0,57,0.00,,,0.00,Wunderground v.1.15,2013-05-25 00:15:00,
2013-05-24 20:24:00,50.5,36.7,30.23,NE,46,0.0,0.0,59,0.00,,,0.00,Wunderground v.1.15,2013-05-25 00:24:00,
2013-05-24 20:30:00,50.2,37.3,30.23,NE,46,0.0,0.0,61,0.00,,,0.00,Wunderground v.1.15,2013-05-25 00:30:00,
2013-05-24 20:39:00,49.6,37.5,30.23,NE,46,0.0,0.0,63,0.00,,,0.00,Wunderground v.1.15,2013-05-25 00:39:00,
2013-05-24 20:45:00,49.2,37.5,30.23,NE,46,0.0,0.0,64,0.00,,,0.00,Wunderground v.1.15,2013-05-25 00:45:00,
2013-05-24 20:55:00,48.5,38.0,30.23,NE,46,0.0,0.0,67,0.00,,,0.00,Wunderground v.1.15,2013-05-25 00:55:00,
2013-05-24 21:00:00,48.0,37.6,30.22,NE,46,0.0,0.0,67,0.00,,,0.00,Wunderground v.1.15,2013-05-25 01:00:00,
2013-05-24 21:09:00,47.1,37.1,30.22,NE,46,0.0,0.0,68,0.00,,,0.00,Wunderground v.1.15,2013-05-25 01:09:00,
2013-05-24 21:15:00,46.7,37.1,30.23,NE,46,0.0,0.0,69,0.00,,,0.00,Wunderground v.1.15,2013-05-25 01:15:00,
2013-05-24 21:24:00,46.1,36.9,30.23,NE,46,0.0,0.0,70,0.00,,,0.00,Wunderground v.1.15,2013-05-25 01:24:00,
2013-05-24 21:30:00,45.7,36.8,30.22,NE,46,0.0,0.0,71,0.00,,,0.00,Wunderground v.1.15,2013-05-25 01:30:00,
2013-05-24 21:39:00,45.2,36.7,30.22,NE,46,0.0,0.0,72,0.00,,,0.00,Wunderground v.1.15,2013-05-25 01:39:00,
2013-05-24 21:45:00,44.9,36.8,30.22,NE,46,0.0,0.0,73,0.00,,,0.00,Wunderground v.1.15,2013-05-25 01:45:00,
2013-05-24 21:55:00,44.3,36.9,30.22,NE,46,0.0,0.0,75,0.00,,,0.00,Wunderground v.1.15,2013-05-25 01:55:00,
2013-05-24 22:00:00,44.2,36.8,30.23,NE,46,0.0,0.0,75,0.00,,,0.00,Wunderground v.1.15,2013-05-25 02:00:00,
2013-05-24 22:09:00,43.8,36.7,30.23,NE,46,0.0,0.0,76,0.00,,,0.00,Wunderground v.1.15,2013-05-25 02:09:00,
2013-05-24 22:15:00,43.5,36.4,30.23,NE,46,0.0,0.0,76,0.00,,,0.00,Wunderground v.1.15,2013-05-25 02:15:00,
2013-05-24 22:24:00,43.2,36.8,30.23,NE,46,0.0,0.0,78,0.00,,,0.00,Wunderground v.1.15,2013-05-25 02:24:00,
2013-05-24 22:30:00,43.1,36.4,30.24,NE,46,0.0,0.0,77,0.00,,,0.00,Wunderground v.1.15,2013-05-25 02:30:00,
2013-05-24 22:39:00,42.8,36.4,30.24,NE,46,0.0,0.0,78,0.00,,,0.00,Wunderground v.1.15,2013-05-25 02:39:00,
2013-05-24 22:45:00,42.5,36.8,30.25,NE,46,0.0,0.0,80,0.00,,,0.00,Wunderground v.1.15,2013-05-25 02:45:00,
2013-05-24 22:54:00,42.3,36.6,30.25,NE,46,0.0,0.0,80,0.00,,,0.00,Wunderground v.1.15,2013-05-25 02:54:00,
2013-05-24 23:00:00,42.1,36.4,30.26,NE,46,0.0,0.0,80,0.00,,,0.00,Wunderground v.1.15,2013-05-25 03:00:00,
2013-05-24 23:09:00,41.8,36.4,30.26,NE,46,0.0,0.0,81,0.00,,,0.00,Wunderground v.1.15,2013-05-25 03:09:00,
2013-05-24 23:15:00,41.6,36.2,30.26,NE,46,0.0,0.0,81,0.00,,,0.00,Wunderground v.1.15,2013-05-25 03:15:00,
2013-05-24 23:24:00,41.3,35.9,30.26,NE,46,0.0,0.0,81,0.00,,,0.00,Wunderground v.1.15,2013-05-25 03:24:00,
2013-05-24 23:30:00,41.2,36.4,30.26,NE,46,0.0,0.0,83,0.00,,,0.00,Wunderground v.1.15,2013-05-25 03:30:00,
2013-05-24 23:40:00,41.1,36.3,30.26,NE,46,0.0,0.0,83,0.00,,,0.00,Wunderground v.1.15,2013-05-25 03:40:00,
2013-05-24 23:45:00,40.8,36.0,30.27,NE,46,0.0,0.0,83,0.00,,,0.00,Wunderground v.1.15,2013-05-25 03:45:00,
2013-05-24 23:54:00,40.6,36.1,30.27,NE,46,0.0,0.0,84,0.00,,,0.00,Wunderground v.1.15,2013-05-25 03:54:00,